Tracking 31027 objects as of 19-Jul-2025
HD Live streaming from Space Station
objects crossing your sky now

BREEZE-M R/B

Track BREEZE-M R/B now!


NORAD ID: 38343
Int'l Code: 2012-026B
Perigee: 10,625.2 km
Apogee: 34,434.2 km
Inclination: 9.9 °
Period: 814.9 minutes
Semi major axis: 28900 km
RCS: 4.9161 m2 (large)
Launch date: May 17, 2012
Source: Commonwealth of Independent States (former USSR) (CIS)
Launch site: TYURATAM MISSILE AND SPACE COMPLEX (TTMTR)

Note: This is a ROCKET BODY
Your satellite tracking list
COSMOS 1408 DEB
Track 1 satellite(s)




NASA's NSSDC Master Catalog

Two Line Element Set (TLE):
1 38343U 12026B   25198.86990112 -.00000074  00000-0  00000-0 0  9995
2 38343   9.8998 163.2451 4119106 355.2580   1.6638  1.76701886 84660
Source of the keplerian elements: AFSPC